Regional Weather Roundup
Issued by NWS Little Rock, AR

Home | Current Version | Previous Version | Text Only | Print | Product List | Glossary On
Versions: 1 2 3 4 5 6 7 8 9 10 11 12 13 14 15 16 17 18 19 20 21 22 23 24 25 26 27 28 29 30 31 32 33 34 35 36 37 38 39 40 41 42 43 44 45 46 47 48 49 50
082
ASUS44 KLZK 240805
RWRLZK

WEATHER ROUNDUP FOR ARKANSAS
NATIONAL WEATHER SERVICE LITTLE ROCK AR
300 AM CDT TUE MAY 24 2016

NOTE: "FAIR" INDICATES FEW OR NO CLOUDS BELOW 12,000 FEET WITH NO
SIGNIFICANT WEATHER AND/OR OBSTRUCTIONS TO VISIBILITY.

ARZ001-003-010-029-240900-
NORTHWEST ARKANSAS

CITY           SKY/WX    TMP DP  RH WIND       PRES   REMARKS
FAYETTEVILLE   PTCLDY    61  61 100 CALM      29.92F
FORT SMITH     CLOUDY    68  64  87 E5        29.91S
HARRISON       CLOUDY    64  62  93 S5        29.96F
BENTONVILLE    CLOUDY    64  59  82 S5        29.93F
ROGERS           N/A     63  61  93 S9        29.93F
SILOAM SPGS    PTCLDY    64  55  72 E5        29.92F
HIGHFILL       MOCLDY    63  63 100 CALM      29.92F
$$

ARZ004-005-016-240900-
NORTH CENTRAL ARKANSAS

CITY           SKY/WX    TMP DP  RH WIND       PRES   REMARKS
BATESVILLE     CLOUDY    64  57  77 CALM      29.97S
FLIPPIN        CLOUDY   N/A N/A N/A NE3       29.92F
MTN HOME       CLOUDY    62  59  90 E3        29.94F
$$

ARZ040-041-240900-
WEST CENTRAL ARKANSAS

CITY           SKY/WX    TMP DP  RH WIND       PRES   REMARKS
MENA           CLOUDY    70  68  94 CALM      29.94S
MOUNT IDA      CLOUDY    65  62  90 CALM      29.92F
$$

ARZ009-017-025-026-028-240900-
NORTHEAST ARKANSAS

CITY           SKY/WX    TMP DP  RH WIND       PRES   REMARKS
CORNING          N/A     68  57  68 CALM      29.98R
JONESBORO      MOCLDY    66  56  70 CALM      29.97S
NEWPORT        CLOUDY    67  57  70 S5        29.98R
WALNUT RIDGE   CLOUDY    66  55  68 CALM      29.98R
BLYTHEVILLE    PTCLDY    68  55  63 S5        29.99R
$$

ARZ022-023-033-042-044-240900-
CENTRAL ARKANSAS

CITY           SKY/WX    TMP DP  RH WIND       PRES   REMARKS
LITTLE ROCK    CLEAR     66  60  81 CALM      29.96R
N LITTLE ROCK    N/A     67  60  77 CALM      29.94S
JACKSONVILLE   CLEAR     61  61  99 N2        29.96R
SEARCY         MOCLDY    62  61  96 CALM      29.98R
HOT SPRINGS    CLEAR     66  61  84 E6        29.95S
RUSSELLVILLE   CLOUDY    69  62  78 CALM      29.93F
CLINTON        MOCLDY    59  59 100 CALM      29.97F
$$

ARZ036-240900-
EAST ARKANSAS

CITY           SKY/WX    TMP DP  RH WIND       PRES   REMARKS
WEST MEMPHIS   MOCLDY    67  56  67 S5        29.98R
$$

ARZ050-053-066-070-073-240900-
SOUTHWEST ARKANSAS

CITY           SKY/WX    TMP DP  RH WIND       PRES   REMARKS
ARKADELPHIA    FAIR      65  65 100 CALM      29.94F
CAMDEN         CLEAR     64  59  82 S5        29.94F
TEXARKANA      PTCLDY    72  65  78 S8        29.92R
EL DORADO      CLEAR     65  63  93 CALM      29.95F
DE QUEEN       CLOUDY    70  67  90 CALM      29.91R
$$

ARZ056-057-069-240900-
SOUTHEAST ARKANSAS

CITY           SKY/WX    TMP DP  RH WIND       PRES   REMARKS
PINE BLUFF     CLEAR     64  60  87 S3        29.96S
STUTTGART      CLEAR     68  57  68 SE7       29.97S
MONTICELLO     CLEAR     66  58  75 SE3       29.96F

$$






USA.gov is the U.S. government's official web portal to all federal, state and local government web resources and services.